User: anonymous   Login
Location: Oshawa
(43.9000°N, 78.8670°W)
Time: 17:26:02
(UTC-04:00)
Language:

CZ-4C R/B - Orbit

View from above orbital plane
View from above orbital plane
View from above satellite
View from above satellite

Ground track
Ground track

The orbit data is extracted from the following two-line orbital elements,

1 32290U 07055B   17263.84660988 +.00003020 +00000-0 +84721-4 0  9992
2 32290 097.5372 012.3426 0067127 150.1420 210.3679 15.35160233546412
Epoch (UTC): 20 September 2017 20:19:07
Eccentricity: 0.0067127
inclination: 97.5372°
perigee height: 414 km
apogee height: 506 km
right ascension of ascending node: 12.3426°
argument of perigee: 150.1420°
revolutions per day: 15.35160233
mean anomaly at epoch: 210.3679°
orbit number at epoch: 54641

The dashed part of the orbit path shows where the satellite is in the earth's shadow,  

DLR